Flag for Portugal Weather past 2 weeks in Viana do Castelo, Portugal

Now
48 °F

Clear.


Feels Like: 46 °F
Forecast: N/A
Wind: 6 mph from Northeast

Location: Porto / Pedras Rubras

Current Time: Dec 25, 2014 at 7:27:16 PM

Latest Report: Dec 25, 2014 at 7:00 PM


Visibility: 5 mi

Pressure: 30.54 "Hg

Humidity: 94%

Dew point: 46 °F

Location of Viana do CasteloLocation

Historic Weather in Viana do Castelo — Graph

°F

Viana do Castelo temperature yesterday

Maximum temperature yesterday: 57 °F (at 1:00 PM)
Minimum temperature yesterday: 48 °F (at 7:00 AM)
Average temperature yesterday: 52 °F

Past Weeks' High & Low Weather Summary

 TemperatureHumidityPressure
High63 °F (Dec 21, 1:30 PM)100% (Dec 10, 10:30 PM)30.57 "Hg (Dec 10, 10:30 PM)
Low37 °F (Dec 20, 3:30 AM)56% (Dec 21, 1:30 PM)29.71 "Hg (Dec 13, 2:00 AM)
Average50 °F86%30.30 "Hg
* Reported Dec 10 6:00 PM — Dec 25 6:00 PM, Viana do Castelo, Weather by CustomWeather, © 2014

Note: Actual official high and low records may vary slightly from our data, if they occured in-between our weather recording intervals... More about our weather records

Advertising

Viana do Castelo weather history for previous 24 hours

 ConditionsComfort  
Time TempWeatherWind HumidityBarometerVisibility
6:00 PM
Dec 25
50 °FClear.3 mph94%30.51 "Hg10 mi
5:30 PM52 °FClear.2 mph82%30.51 "Hg5 mi
5:00 PM54 °FSunny.3 mph82%30.51 "Hg10 mi
4:30 PM55 °FSunny.2 mph77%30.51 "Hg10 mi
4:00 PM55 °FSunny.5 mph77%30.51 "Hg10 mi
3:00 PM55 °FPassing clouds.6 mph72%30.54 "HgN/A
2:30 PM55 °FPassing clouds.6 mph67%30.54 "HgN/A
2:00 PM55 °FPassing clouds.5 mph67%30.54 "HgN/A
1:30 PM57 °FPassing clouds.3 mph67%30.54 "HgN/A
1:00 PM54 °FPassing clouds.3 mph72%30.57 "HgN/A
12:30 PM54 °FPassing clouds.3 mph72%30.57 "HgN/A
12:00 PM54 °FSunny.2 mph67%30.57 "Hg10 mi
11:30 AM52 °FPassing clouds.5 mph77%30.57 "HgN/A
11:00 AM50 °FPassing clouds.3 mph76%30.57 "HgN/A
10:30 AM48 °FPassing clouds.3 mph82%30.57 "HgN/A
10:00 AM46 °FPassing clouds.3 mph87%30.57 "HgN/A
9:30 AM46 °FSunny.2 mph82%30.57 "Hg10 mi
9:00 AM45 °FPassing clouds.3 mph87%30.54 "HgN/A
8:30 AM45 °FSunny.2 mph87%30.54 "Hg10 mi
8:00 AM43 °FClear.3 mph93%30.54 "Hg5 mi
7:30 AM43 °FClear.2 mph93%30.54 "Hg6 mi
7:00 AM41 °FClear.3 mph93%30.54 "Hg6 mi
6:30 AM43 °FClear.3 mph93%30.51 "Hg5 mi
6:00 AM41 °FClear.2 mph93%30.51 "Hg4 mi
5:30 AM43 °FClear.2 mph93%30.51 "Hg4 mi
5:00 AM41 °FClear.2 mph93%30.48 "Hg4 mi
4:30 AM46 °FClear.No wind82%30.48 "Hg4 mi
4:00 AM45 °FClear.2 mph93%30.48 "Hg4 mi
3:30 AM45 °FClear.6 mph93%30.48 "Hg4 mi
3:00 AM45 °FClear.2 mph93%30.48 "Hg4 mi
2:30 AM45 °FClear.2 mph93%30.48 "Hg4 mi
2:00 AM45 °FClear.1 mph93%30.48 "Hg4 mi
1:30 AM43 °FClear.2 mph93%30.48 "Hg4 mi
1:00 AM45 °FClear.No wind93%30.48 "Hg5 mi
12:30 AM48 °FClear.No wind82%30.48 "Hg5 mi
12:00 AM48 °FClear.2 mph82%30.48 "Hg6 mi
11:30 PM
Dec 24
48 °FClear.6 mph82%30.48 "Hg6 mi
11:00 PM50 °FClear.6 mph82%30.48 "Hg6 mi
10:30 PM50 °FClear.3 mph82%30.48 "Hg5 mi
10:00 PM52 °FClear.3 mph82%30.48 "Hg6 mi
9:30 PM52 °FClear.5 mph82%30.48 "Hg6 mi
9:00 PM52 °FClear.7 mph77%30.45 "Hg6 mi
8:30 PM54 °FClear.8 mph77%30.45 "Hg5 mi
8:00 PM52 °FClear.6 mph82%30.45 "Hg4 mi
7:30 PM52 °FPassing clouds.5 mph88%30.45 "Hg4 mi
7:00 PM52 °FPassing clouds.2 mph88%30.45 "Hg5 mi
Weather by CustomWeather, © 2014

See weather overviewHow to use our weather pages